Meteo18 Weather Cam more information Meteo18 Weather Cam


Thunder radar more information blitzortung!


Rain radar more information rain snow radar



Select another period ( hide this area )

Units Period Custom range Directly to
Metric English Both
Daily Weekly Monthly Yearly
use both date-selectors for a custom range
previous Day
With this date

WeatherUnderground graphs for this period ( click here )


Daily Summary for Tuesday 23 October 2018
Time Temp. ( °C ) Dew pt. ( °C ) Wind ( km/h ) from Gust ( km/h ) Pressure ( hPa ) Humid.( % ) Rainrate ( cm )
High13,6 8,1 16,3 NNE ( 270/792 ) 24,1 1033,7 94 -
Average8,5 6,1 4,7 NNE #41/169 10,0 1032,6 85 -
Low4,9 3,7 -   0,0 1031,7 60 -
Daily Tabular details for Tuesday 23 October 2018
Time Temp. ( °C ) Dew pt. ( °C ) Wind ( km/h ) from Gust ( km/h ) Pressure ( hPa ) Humid.( % ) Rainrate ( cm )
00:04 11,1 8,1 14,3 NNE 24,1 1032,7 82 -
00:08 11,1 8,1 7,9 NNE 17,7 1032,7 82 -
00:14 10,9 7,9 6,4 North 14,5 1032,4 82 -
00:18 10,8 7,9 6,4 NNE 14,5 1032,4 82 -
00:24 10,7 7,9 6,4 ENE 16,1 1032,4 83 -
00:28 10,6 7,8 7,9 NE 9,7 1032,4 83 -
00:34 10,4 7,6 1,4 NE 11,3 1032,4 83 -
00:38 10,4 7,6 3,2 NNW 12,9 1032,4 83 -
00:44 10,3 7,7 3,2 North 14,5 1032,4 84 -
00:48 10,2 7,6 9,7 NNE 12,9 1032,4 84 -
00:54 10,1 7,5 4,7 NNE 12,9 1032,4 84 -
00:58 10,1 7,5 6,4 ENE 9,7 1032,4 84 -
01:04 10,0 7,4 7,9 North 16,1 1032,4 84 -
01:08 10,0 7,4 9,7 NW 17,7 1032,4 84 -
01:14 9,9 7,3 4,7 ENE 14,5 1032,4 84 -
01:18 9,8 7,2 1,4 NE 12,9 1032,4 84 -
01:24 9,7 7,3 7,9 NNE 16,1 1032,4 85 -
01:28 9,7 7,3 7,9 NE 14,5 1032,4 85 -
01:34 9,6 7,2 11,1 NNW 14,5 1032,7 85 -
01:38 9,5 7,1 7,9 NNW 16,1 1032,7 85 -
01:44 9,5 7,1 9,7 NNE 14,5 1032,7 85 -
01:48 9,4 7,0 6,4 NE 16,1 1032,4 85 -
01:54 9,4 7,0 6,4 NNE 14,5 1032,4 85 -
01:58 9,3 6,9 14,3 NNE 16,1 1032,4 85 -
02:04 9,3 7,1 4,7 NNW 12,9 1032,4 86 -
02:08 9,2 7,0 3,2 ENE 11,3 1032,4 86 -
02:14 9,2 7,0 3,2 NNE 14,5 1032,4 86 -
02:18 9,2 7,0 16,3 NE 16,1 1032,1 86 -
02:24 9,1 6,9 4,7 NNE 12,9 1032,1 86 -
02:28 9,1 6,9 9,7 NNW 14,5 1032,1 86 -
02:34 9,0 6,8 4,7 NE 11,3 1032,4 86 -
02:38 9,0 6,8 7,9 North 16,1 1032,4 86 -
02:44 8,9 6,7 4,7 NNE 17,7 1032,4 86 -
02:48 8,9 6,7 6,4 North 16,1 1032,4 86 -
02:54 8,8 6,6 6,4 NNE 11,3 1032,4 86 -
02:58 8,7 6,7 4,7 NE 12,9 1032,1 87 -
03:04 8,6 6,6 11,1 North 12,9 1032,1 87 -
03:08 8,6 6,6 7,9 NNE 17,7 1032,4 87 -
03:14 8,6 6,6 11,1 NNE 22,5 1032,4 87 -
03:18 8,5 6,5 6,4 NNE 12,9 1032,4 87 -
03:24 8,5 6,5 6,4 NNE 11,3 1032,1 87 -
03:28 8,4 6,4 7,9 North 12,9 1032,1 87 -
03:34 8,3 6,3 4,7 ENE 12,9 1032,1 87 -
03:38 8,3 6,3 1,4 NNW 11,3 1032,1 87 -
03:44 8,3 6,3 3,2 North 12,9 1032,1 87 -
03:48 8,2 6,3 1,4 NNW 12,9 1032,1 88 -
03:54 8,2 6,3 3,2 North 12,9 1031,7 88 -
03:58 8,2 6,3 3,2 NNW 8,0 1031,7 88 -
04:04 8,1 6,2 1,4 NE 8,0 1032,1 88 -
04:08 8,1 6,2 3,2 NNW 14,5 1032,1 88 -
04:14 8,0 6,1 1,4 NNW 6,4 1032,1 88 -
04:18 7,9 6,0 1,4 North 8,0 1031,7 88 -
04:24 7,9 6,0 1,4 North 8,0 1031,7 88 -
04:28 7,8 5,9   Calm 1,6 1031,7 88 -
04:34 7,7 6,0 3,2 NW 4,8 1031,7 89 -
04:38 7,7 6,0   Calm 1,6 1031,7 89 -
04:44 7,6 5,9 1,4 WNW 4,8 1031,7 89 -
04:48 7,5 5,8 1,4 NNW 1,6 1032,1 89 -
04:54 7,4 5,9 1,4 WNW 1,6 1032,1 90 -
04:58 7,4 5,9 6,4 NNW 6,4 1032,1 90 -
05:04 7,3 5,8 1,4 North 8,0 1032,4 90 -
05:08 7,3 5,8 4,7 NNW 11,3 1032,4 90 -
05:14 7,4 5,9 6,4 NNE 12,9 1032,4 90 -
05:18 7,4 5,9 13,0 NNW 16,1 1032,4 90 -
05:24 7,5 6,0 11,1 NNE 17,7 1032,4 90 -
05:28 7,6 5,9 9,7 NNE 16,1 1032,4 89 -
05:34 7,5 5,8 13,0 North 16,1 1032,4 89 -
05:38 7,4 5,7 1,4 NE 14,5 1032,4 89 -
05:44 7,3 5,6 3,2 NW 8,0 1032,7 89 -
05:48 7,2 5,5 3,2 ENE 8,0 1032,4 89 -
05:54 7,1 5,6 4,7 NNW 8,0 1032,4 90 -
05:58 7,1 5,6   Calm 4,8 1032,1 90 -
06:04 6,9 5,4   Calm 4,8 1032,1 90 -
06:08 6,9 5,4 1,4 NNW 4,8 1032,1 90 -
06:14 6,8 5,3 4,7 North 4,8 1032,1 90 -
06:18 6,8 5,3 1,4 NNW 4,8 1032,1 90 -
06:24 6,8 5,3 4,7 North 6,4 1032,1 90 -
06:28 6,8 5,3 3,2 NNE 6,4 1032,1 90 -
06:34 6,7 5,2 6,4 NNW 11,3 1032,1 90 -
06:38 6,6 5,1 4,7 North 9,7 1032,4 90 -
06:44 6,6 5,1 1,4 NNW 6,4 1032,4 90 -
06:48 6,4 4,9   Calm 3,2 1032,4 90 -
06:54 6,4 5,0 1,4 North 3,2 1032,4 91 -
06:58 6,4 5,0 3,2 NNW 8,0 1032,4 91 -
07:04 6,2 4,8 1,4 NE 8,0 1032,4 91 -
07:08 6,2 4,8   Calm 3,2 1032,1 91 -
07:14 6,1 4,7 3,2 NNE 3,2 1032,1 91 -
07:18 6,1 4,7 1,4 NNE 6,4 1032,1 91 -
07:24 5,8 4,4 9,7 ENE 9,7 1032,4 91 -
07:28 5,8 4,6 3,2 NE 6,4 1032,1 92 -
07:34 5,6 4,4 1,4 NNE 3,2 1032,1 92 -
07:38 5,6 4,4 1,4 NNW 3,2 1032,1 92 -
07:44 5,4 4,2 3,2 North 4,8 1032,1 92 -
07:48 5,5 4,3   Calm 1,6 1032,1 92 -
07:54 5,3 4,1 1,4 WNW 1,6 1032,4 92 -
07:58 5,1 3,9 3,2 NW 3,2 1032,4 92 -
08:03 4,9 3,7   Calm 3,2 1032,4 92 -
08:09 4,9 3,9   Calm 3,2 1032,4 93 -
08:13 5,2 4,3   Calm 3,2 1032,4 94 -
08:19 5,3 4,4   Calm 3,2 1032,4 94 -
08:23 5,4 4,5   Calm 1,6 1032,4 94 -
08:29 5,4 4,4   Calm 3,2 1032,4 93 -
08:33 5,4 4,4 3,2 NNE 3,2 1032,4 93 -
08:39 5,3 4,3 1,4 North 1,6 1032,4 93 -
08:43 5,3 4,3   Calm 3,2 1032,4 93 -
08:49 5,4 4,4   Calm   1032,4 93 -
08:53 5,4 4,4   Calm   1032,7 93 -
08:59 5,3 4,3 1,4 North 1,6 1032,7 93 -
09:03 5,2 4,2   Calm   1032,7 93 -
09:09 5,1 4,1 1,4 North 3,2 1033,1 93 -
09:13 5,3 4,4 1,4 North 4,8 1032,7 94 -
09:19 5,7 4,8   Calm 4,8 1032,7 94 -
09:23 5,8 4,9   Calm 3,2 1033,1 94 -
09:29 6,1 5,2 1,4 NNE 6,4 1033,1 94 -
09:33 6,2 5,2 3,2 NNE 4,8 1033,1 93 -
09:39 6,3 5,3   Calm 6,4 1032,7 93 -
09:43 6,5 5,4 4,7 NNW 6,4 1032,7 93 -
09:49 6,7 5,6 3,2 NNE 11,3 1033,1 93 -
09:53 6,9 5,8 4,7 North 9,7 1033,1 93 -
09:59 7,0 5,8 4,7 NE 6,4 1033,1 92 -
10:03 7,1 5,9 3,2 NNW 9,7 1033,1 92 -
10:09 7,3 6,1 4,7 NNE 11,3 1033,4 92 -
10:13 7,4 6,0 6,4 NE 9,7 1033,7 91 -
10:19 7,4 6,0   Calm 12,9 1033,7 91 -
10:23 7,4 6,0 9,7 NE 11,3 1033,7 91 -
10:29 7,5 6,0 9,7 NE 11,3 1033,7 90 -
10:33 7,6 6,1 9,7 NE 12,9 1033,7 90 -
10:39 7,7 6,2 4,7 NE 11,3 1033,7 90 -
10:43 7,9 6,4 3,2 NNE 12,9 1033,7 90 -
10:49 8,2 6,5 9,7 NNE 16,1 1033,7 89 -
10:53 8,3 6,4 4,7 North 11,3 1033,7 88 -
10:59 8,4 6,4 3,2 North 11,3 1033,7 87 -
11:03 8,4 6,4 3,2 NNW 8,0 1033,7 87 -
11:09 8,7 6,7 7,9 NNE 11,3 1033,7 87 -
11:13 8,7 6,5 1,4 NE 4,8 1033,7 86 -
11:19 8,9 6,5 7,9 North 8,0 1033,7 85 -
11:23 9,1 6,7 6,4 NNE 8,0 1033,7 85 -
11:29 9,3 6,7   Calm 6,4 1033,7 84 -
11:33 9,4 6,8 3,2 NNE 4,8 1033,4 84 -
11:39 9,7 6,8 4,7 NE 9,7 1033,7 82 -
11:43 9,8 6,9 4,7 NNE 9,7 1033,7 82 -
11:49 9,9 6,8   Calm 12,9 1033,4 81 -
11:53 9,9 6,8 4,7 NNW 9,7 1033,4 81 -
11:59 10,3 7,0 3,2 WNW 6,4 1033,4 80 -
12:03 10,6 7,3   Calm 1,6 1033,4 80 -
12:09 10,8 7,3 1,4 WNW 4,8 1033,4 79 -
12:13 11,0 7,5 9,7 NNE 9,7 1033,4 79 -
12:19 11,2 7,1   Calm 8,0 1033,4 76 -
12:23 11,4 7,5 3,2 NE 8,0 1033,4 77 -
12:29 11,5 6,8 4,7 NNE 9,7 1033,4 73 -
12:33 11,5 6,6 6,4 NE 12,9 1033,4 72 -
12:39 11,8 6,7 3,2 NE 9,7 1033,4 71 -
12:43 12,1 6,8 1,4 NE 14,5 1033,1 70 -
12:49 12,1 6,6 11,1 NNE 16,1 1033,1 69 -
12:53 12,1 6,8 9,7 NE 11,3 1033,4 70 -
12:59 12,3 6,3 13,0 NE 22,5 1033,1 67 -
13:03 12,4 6,2 9,7 NE 14,5 1033,1 66 -
13:09 12,6 6,4 9,7 NNE 22,5 1033,1 66 -
13:13 12,7 6,1 11,1 NNW 16,1 1033,1 64 -
13:19 13,0 6,1 13,0 North 22,5 1033,1 63 -
13:23 13,0 5,9 11,1 NNE 19,3 1033,1 62 -
13:29 13,0 5,9 9,7 NE 16,1 1032,7 62 -
13:33 12,9 5,8 11,1 North 16,1 1032,7 62 -
13:39 12,9 5,8 4,7 NNE 12,9 1032,7 62 -
13:43 13,2 6,3 3,2 NE 12,9 1032,4 63 -
13:49 13,4 6,0 3,2 ESE 16,1 1032,4 61 -
13:53 13,6 6,0 6,4 North 14,5 1032,4 60 -
13:58 13,5 6,1 4,7 NW 11,3 1032,4 61 -
14:04 13,5 6,1 9,7 NE 14,5 1032,4 61 -
Daily Summary for Tuesday 23 October 2018
Time Temp. ( °C ) Dew pt. ( °C ) Wind ( km/h ) from Gust ( km/h ) Pressure ( hPa ) Humid.( % ) Rainrate ( cm )
High13,6 8,1 16,3 NNE ( 270/792 ) 24,1 1033,7 94 -
Average8,5 6,1 4,7 NNE #41/169 10,0 1032,6 85 -
Low4,9 3,7 -   0,0 1031,7 60 -
Daily Tabular details for Tuesday 23 October 2018
Time Temp. ( °C ) Dew pt. ( °C ) Wind ( km/h ) from Gust ( km/h ) Pressure ( hPa ) Humid.( % ) Rainrate ( cm )
00:04 11,1 8,1 14,3 NNE 24,1 1032,7 82 -
00:08 11,1 8,1 7,9 NNE 17,7 1032,7 82 -
00:14 10,9 7,9 6,4 North 14,5 1032,4 82 -
00:18 10,8 7,9 6,4 NNE 14,5 1032,4 82 -
00:24 10,7 7,9 6,4 ENE 16,1 1032,4 83 -
00:28 10,6 7,8 7,9 NE 9,7 1032,4 83 -
00:34 10,4 7,6 1,4 NE 11,3 1032,4 83 -
00:38 10,4 7,6 3,2 NNW 12,9 1032,4 83 -
00:44 10,3 7,7 3,2 North 14,5 1032,4 84 -
00:48 10,2 7,6 9,7 NNE 12,9 1032,4 84 -
00:54 10,1 7,5 4,7 NNE 12,9 1032,4 84 -
00:58 10,1 7,5 6,4 ENE 9,7 1032,4 84 -
01:04 10,0 7,4 7,9 North 16,1 1032,4 84 -
01:08 10,0 7,4 9,7 NW 17,7 1032,4 84 -
01:14 9,9 7,3 4,7 ENE 14,5 1032,4 84 -
01:18 9,8 7,2 1,4 NE 12,9 1032,4 84 -
01:24 9,7 7,3 7,9 NNE 16,1 1032,4 85 -
01:28 9,7 7,3 7,9 NE 14,5 1032,4 85 -
01:34 9,6 7,2 11,1 NNW 14,5 1032,7 85 -
01:38 9,5 7,1 7,9 NNW 16,1 1032,7 85 -
01:44 9,5 7,1 9,7 NNE 14,5 1032,7 85 -
01:48 9,4 7,0 6,4 NE 16,1 1032,4 85 -
01:54 9,4 7,0 6,4 NNE 14,5 1032,4 85 -
01:58 9,3 6,9 14,3 NNE 16,1 1032,4 85 -
02:04 9,3 7,1 4,7 NNW 12,9 1032,4 86 -
02:08 9,2 7,0 3,2 ENE 11,3 1032,4 86 -
02:14 9,2 7,0 3,2 NNE 14,5 1032,4 86 -
02:18 9,2 7,0 16,3 NE 16,1 1032,1 86 -
02:24 9,1 6,9 4,7 NNE 12,9 1032,1 86 -
02:28 9,1 6,9 9,7 NNW 14,5 1032,1 86 -
02:34 9,0 6,8 4,7 NE 11,3 1032,4 86 -
02:38 9,0 6,8 7,9 North 16,1 1032,4 86 -
02:44 8,9 6,7 4,7 NNE 17,7 1032,4 86 -
02:48 8,9 6,7 6,4 North 16,1 1032,4 86 -
02:54 8,8 6,6 6,4 NNE 11,3 1032,4 86 -
02:58 8,7 6,7 4,7 NE 12,9 1032,1 87 -
03:04 8,6 6,6 11,1 North 12,9 1032,1 87 -
03:08 8,6 6,6 7,9 NNE 17,7 1032,4 87 -
03:14 8,6 6,6 11,1 NNE 22,5 1032,4 87 -
03:18 8,5 6,5 6,4 NNE 12,9 1032,4 87 -
03:24 8,5 6,5 6,4 NNE 11,3 1032,1 87 -
03:28 8,4 6,4 7,9 North 12,9 1032,1 87 -
03:34 8,3 6,3 4,7 ENE 12,9 1032,1 87 -
03:38 8,3 6,3 1,4 NNW 11,3 1032,1 87 -
03:44 8,3 6,3 3,2 North 12,9 1032,1 87 -
03:48 8,2 6,3 1,4 NNW 12,9 1032,1 88 -
03:54 8,2 6,3 3,2 North 12,9 1031,7 88 -
03:58 8,2 6,3 3,2 NNW 8,0 1031,7 88 -
04:04 8,1 6,2 1,4 NE 8,0 1032,1 88 -
04:08 8,1 6,2 3,2 NNW 14,5 1032,1 88 -
04:14 8,0 6,1 1,4 NNW 6,4 1032,1 88 -
04:18 7,9 6,0 1,4 North 8,0 1031,7 88 -
04:24 7,9 6,0 1,4 North 8,0 1031,7 88 -
04:28 7,8 5,9   Calm 1,6 1031,7 88 -
04:34 7,7 6,0 3,2 NW 4,8 1031,7 89 -
04:38 7,7 6,0   Calm 1,6 1031,7 89 -
04:44 7,6 5,9 1,4 WNW 4,8 1031,7 89 -
04:48 7,5 5,8 1,4 NNW 1,6 1032,1 89 -
04:54 7,4 5,9 1,4 WNW 1,6 1032,1 90 -
04:58 7,4 5,9 6,4 NNW 6,4 1032,1 90 -
05:04 7,3 5,8 1,4 North 8,0 1032,4 90 -
05:08 7,3 5,8 4,7 NNW 11,3 1032,4 90 -
05:14 7,4 5,9 6,4 NNE 12,9 1032,4 90 -
05:18 7,4 5,9 13,0 NNW 16,1 1032,4 90 -
05:24 7,5 6,0 11,1 NNE 17,7 1032,4 90 -
05:28 7,6 5,9 9,7 NNE 16,1 1032,4 89 -
05:34 7,5 5,8 13,0 North 16,1 1032,4 89 -
05:38 7,4 5,7 1,4 NE 14,5 1032,4 89 -
05:44 7,3 5,6 3,2 NW 8,0 1032,7 89 -
05:48 7,2 5,5 3,2 ENE 8,0 1032,4 89 -
05:54 7,1 5,6 4,7 NNW 8,0 1032,4 90 -
05:58 7,1 5,6   Calm 4,8 1032,1 90 -
06:04 6,9 5,4   Calm 4,8 1032,1 90 -
06:08 6,9 5,4 1,4 NNW 4,8 1032,1 90 -
06:14 6,8 5,3 4,7 North 4,8 1032,1 90 -
06:18 6,8 5,3 1,4 NNW 4,8 1032,1 90 -
06:24 6,8 5,3 4,7 North 6,4 1032,1 90 -
06:28 6,8 5,3 3,2 NNE 6,4 1032,1 90 -
06:34 6,7 5,2 6,4 NNW 11,3 1032,1 90 -
06:38 6,6 5,1 4,7 North 9,7 1032,4 90 -
06:44 6,6 5,1 1,4 NNW 6,4 1032,4 90 -
06:48 6,4 4,9   Calm 3,2 1032,4 90 -
06:54 6,4 5,0 1,4 North 3,2 1032,4 91 -
06:58 6,4 5,0 3,2 NNW 8,0 1032,4 91 -
07:04 6,2 4,8 1,4 NE 8,0 1032,4 91 -
07:08 6,2 4,8   Calm 3,2 1032,1 91 -
07:14 6,1 4,7 3,2 NNE 3,2 1032,1 91 -
07:18 6,1 4,7 1,4 NNE 6,4 1032,1 91 -
07:24 5,8 4,4 9,7 ENE 9,7 1032,4 91 -
07:28 5,8 4,6 3,2 NE 6,4 1032,1 92 -
07:34 5,6 4,4 1,4 NNE 3,2 1032,1 92 -
07:38 5,6 4,4 1,4 NNW 3,2 1032,1 92 -
07:44 5,4 4,2 3,2 North 4,8 1032,1 92 -
07:48 5,5 4,3   Calm 1,6 1032,1 92 -
07:54 5,3 4,1 1,4 WNW 1,6 1032,4 92 -
07:58 5,1 3,9 3,2 NW 3,2 1032,4 92 -
08:03 4,9 3,7   Calm 3,2 1032,4 92 -
08:09 4,9 3,9   Calm 3,2 1032,4 93 -
08:13 5,2 4,3   Calm 3,2 1032,4 94 -
08:19 5,3 4,4   Calm 3,2 1032,4 94 -
08:23 5,4 4,5   Calm 1,6 1032,4 94 -
08:29 5,4 4,4   Calm 3,2 1032,4 93 -
08:33 5,4 4,4 3,2 NNE 3,2 1032,4 93 -
08:39 5,3 4,3 1,4 North 1,6 1032,4 93 -
08:43 5,3 4,3   Calm 3,2 1032,4 93 -
08:49 5,4 4,4   Calm   1032,4 93 -
08:53 5,4 4,4   Calm   1032,7 93 -
08:59 5,3 4,3 1,4 North 1,6 1032,7 93 -
09:03 5,2 4,2   Calm   1032,7 93 -
09:09 5,1 4,1 1,4 North 3,2 1033,1 93 -
09:13 5,3 4,4 1,4 North 4,8 1032,7 94 -
09:19 5,7 4,8   Calm 4,8 1032,7 94 -
09:23 5,8 4,9   Calm 3,2 1033,1 94 -
09:29 6,1 5,2 1,4 NNE 6,4 1033,1 94 -
09:33 6,2 5,2 3,2 NNE 4,8 1033,1 93 -
09:39 6,3 5,3   Calm 6,4 1032,7 93 -
09:43 6,5 5,4 4,7 NNW 6,4 1032,7 93 -
09:49 6,7 5,6 3,2 NNE 11,3 1033,1 93 -
09:53 6,9 5,8 4,7 North 9,7 1033,1 93 -
09:59 7,0 5,8 4,7 NE 6,4 1033,1 92 -
10:03 7,1 5,9 3,2 NNW 9,7 1033,1 92 -
10:09 7,3 6,1 4,7 NNE 11,3 1033,4 92 -
10:13 7,4 6,0 6,4 NE 9,7 1033,7 91 -
10:19 7,4 6,0   Calm 12,9 1033,7 91 -
10:23 7,4 6,0 9,7 NE 11,3 1033,7 91 -
10:29 7,5 6,0 9,7 NE 11,3 1033,7 90 -
10:33 7,6 6,1 9,7 NE 12,9 1033,7 90 -
10:39 7,7 6,2 4,7 NE 11,3 1033,7 90 -
10:43 7,9 6,4 3,2 NNE 12,9 1033,7 90 -
10:49 8,2 6,5 9,7 NNE 16,1 1033,7 89 -
10:53 8,3 6,4 4,7 North 11,3 1033,7 88 -
10:59 8,4 6,4 3,2 North 11,3 1033,7 87 -
11:03 8,4 6,4 3,2 NNW 8,0 1033,7 87 -
11:09 8,7 6,7 7,9 NNE 11,3 1033,7 87 -
11:13 8,7 6,5 1,4 NE 4,8 1033,7 86 -
11:19 8,9 6,5 7,9 North 8,0 1033,7 85 -
11:23 9,1 6,7 6,4 NNE 8,0 1033,7 85 -
11:29 9,3 6,7   Calm 6,4 1033,7 84 -
11:33 9,4 6,8 3,2 NNE 4,8 1033,4 84 -
11:39 9,7 6,8 4,7 NE 9,7 1033,7 82 -
11:43 9,8 6,9 4,7 NNE 9,7 1033,7 82 -
11:49 9,9 6,8   Calm 12,9 1033,4 81 -
11:53 9,9 6,8 4,7 NNW 9,7 1033,4 81 -
11:59 10,3 7,0 3,2 WNW 6,4 1033,4 80 -
12:03 10,6 7,3   Calm 1,6 1033,4 80 -
12:09 10,8 7,3 1,4 WNW 4,8 1033,4 79 -
12:13 11,0 7,5 9,7 NNE 9,7 1033,4 79 -
12:19 11,2 7,1   Calm 8,0 1033,4 76 -
12:23 11,4 7,5 3,2 NE 8,0 1033,4 77 -
12:29 11,5 6,8 4,7 NNE 9,7 1033,4 73 -
12:33 11,5 6,6 6,4 NE 12,9 1033,4 72 -
12:39 11,8 6,7 3,2 NE 9,7 1033,4 71 -
12:43 12,1 6,8 1,4 NE 14,5 1033,1 70 -
12:49 12,1 6,6 11,1 NNE 16,1 1033,1 69 -
12:53 12,1 6,8 9,7 NE 11,3 1033,4 70 -
12:59 12,3 6,3 13,0 NE 22,5 1033,1 67 -
13:03 12,4 6,2 9,7 NE 14,5 1033,1 66 -
13:09 12,6 6,4 9,7 NNE 22,5 1033,1 66 -
13:13 12,7 6,1 11,1 NNW 16,1 1033,1 64 -
13:19 13,0 6,1 13,0 North 22,5 1033,1 63 -
13:23 13,0 5,9 11,1 NNE 19,3 1033,1 62 -
13:29 13,0 5,9 9,7 NE 16,1 1032,7 62 -
13:33 12,9 5,8 11,1 North 16,1 1032,7 62 -
13:39 12,9 5,8 4,7 NNE 12,9 1032,7 62 -
13:43 13,2 6,3 3,2 NE 12,9 1032,4 63 -
13:49 13,4 6,0 3,2 ESE 16,1 1032,4 61 -
13:53 13,6 6,0 6,4 North 14,5 1032,4 60 -
13:58 13,5 6,1 4,7 NW 11,3 1032,4 61 -
14:04 13,5 6,1 9,7 NE 14,5 1032,4 61 -

Download your copy of this data-set  here

Our weather-data as stored at Weather Underground. Script developed by Jim McMurry. Adapted for the template by Leuven-Template.eu

You find our weather info also at:

Weather Underground

Equipment we use:

Weather-station
Davis Vue

Weather-program
Meteobridge

Weather-server
Raspberry PI 2 B+

Provider
1 and 1

Davis Vue

Meteobridge

Raspberry PI 2 B+

1 and 1